[[{"header":{"parameterUnit":"m.s-1","parameterCategory":2,"la1":30.2991,"la2":30.254,"lo1":-89.0895,"lo2":-89.0444,"dy":0.0017,"dx":0.0017,"nx":28,"ny":28,"refTime":"2024-03-08T09:00:00:Z","depth":"0","parameterNumber":2,"parameterNumberName":"U-component_of_CURRENTS"},"data":[0,0,0,0,0,0,0,0,0,0,0,0,0,0,0,0,0,0,0,0,0,0,0,0,0,0,0,0,0,0,0,0,0,0,0,0,0,0,0,0,0,0,0,0,0,0,0,0,0,0,0,0,0,0,0,0,0,0,0.2039,0.204,0,0.2121,0.2122,0.2122,0.2128,0.2127,0.2126,0.2126,0.2131,0.2132,0.2133,0,0,0,0,0,0,0,0,0,0,0,0,0,0.1969,0.197,0.2039,0.204,0.2041,0.212,0.2122,0.2123,0.2128,0.2127,0.2126,0.2125,0.2131,0.2132,0.2133,0,0,0,0,0,0,0,0,0,0,0,0,0,0.202,0.197,0.2039,0.2053,0.2055,0.212,0.2122,0.2123,0.2129,0.2127,0.2126,0.2125,0.2131,0.2132,0.2134,0.2171,0,0,0.2138,0.2139,0,0,0,0,0,0,0,0,0.2017,0.2023,0.205,0.2052,0.2055,0.2113,0.2099,0.2135,0.2129,0.2101,0.2126,0.2124,0.2119,0.2121,0.2141,0.2171,0.2171,0.2138,0.2139,0.214,0.214,0,0,0,0,0,0,0,0.2013,0.202,0.2071,0.2051,0.2054,0.2084,0.2089,0.2107,0.2115,0.2103,0.2104,0.2113,0.2119,0.214,0.2141,0.2171,0.2138,0.214,0.2141,0.2141,0.2199,0.2199,0,0,0,0,0,0,0.2001,0.2016,0.2069,0.2074,0.2032,0.2086,0.2091,0.2096,0.2117,0.2119,0.2114,0.2113,0.2138,0.2139,0.2141,0.2181,0.214,0.2141,0.2142,0.2198,0.2199,0.22,0,0,0,0,0,0,0.1999,0.2004,0.2065,0.2047,0.2057,0.2088,0.2093,0.2098,0.2116,0.2126,0.2127,0.2127,0.2137,0.2139,0.2141,0.2181,0.2142,0.2143,0.2197,0.2198,0.2199,0.2263,0,0,0,0,0,0,0.1996,0.2003,0.2007,0.2046,0.2057,0.2108,0.2095,0.2101,0.2124,0.2123,0.2137,0.2137,0.2136,0.2139,0.2143,0.2182,0.2145,0.2197,0.2198,0.2199,0.2261,0.2266,0.2272,0,0,0,0,0,0.1993,0.2003,0.2006,0.2013,0.2059,0.2109,0.2119,0.2136,0.2126,0.2145,0.2134,0.2136,0.2149,0.214,0.2145,0.2186,0.2196,0.2198,0.2199,0.2258,0.2265,0.2271,0,0,0,0,0,0,0.1975,0.2005,0.201,0.2027,0.2067,0.211,0.2131,0.2141,0.2153,0.2148,0.2141,0.2141,0.2158,0.2157,0.2147,0.2203,0.2175,0.2178,0.2219,0.2226,0.2231,0.2244,0.2146,0,0,0,0,0,0.1973,0.1987,0.2026,0.2042,0.2061,0.2097,0.2119,0.2137,0.2153,0.2159,0.2163,0.2164,0.2172,0.2183,0.2188,0.2222,0.2229,0.225,0.2256,0.226,0.2273,0.23,0.231,0.2204,0.2204,0.2204,0,0,0.1972,0.199,0.1998,0.204,0.207,0.212,0.2107,0.2151,0.2189,0.2157,0.2194,0.2182,0.2181,0.2212,0.2222,0.2216,0.2296,0.2262,0.2267,0.2276,0.2303,0.2314,0.2323,0.2205,0.2205,0.2205,0,0,0.1985,0.1993,0.2016,0.2053,0.2104,0.2137,0.2149,0.2195,0.2211,0.2247,0.2225,0.2231,0.2254,0.2263,0.2269,0.2309,0.2316,0.2311,0.2366,0.2393,0.2402,0.2411,0.2446,0.2457,0.2325,0.2325,0.2325,0,0.1984,0.2014,0.2033,0.2075,0.2111,0.2145,0.2194,0.2229,0.2268,0.2281,0.2265,0.2291,0.2286,0.2324,0.2334,0.2327,0.2339,0.2344,0.2402,0.2411,0.2418,0.2452,0.2463,0.2328,0.2328,0.2327,0.2327,0,0.2022,0.2053,0.2074,0.2136,0.2181,0.2228,0.2283,0.232,0.2338,0.2363,0.2393,0.2385,0.2401,0.2403,0.2383,0.2436,0.2427,0.24,0.239,0.2433,0.2465,0.2476,0.2333,0.2332,0.2331,0.233,0,0,0.1999,0.2082,0.2089,0.2126,0.2215,0.2255,0.2329,0.2396,0.243,0.2466,0.2503,0.2519,0.2507,0.2511,0.2491,0.2514,0.2576,0.2484,0.2484,0.2528,0.2646,0.2654,0.2666,0.2558,0.256,0.2561,0.2652,0,0.2024,0.2099,0.214,0.2225,0.2273,0.2332,0.239,0.2455,0.2498,0.2541,0.2553,0.2572,0.2553,0.255,0.258,0.2562,0.2604,0.2554,0.259,0.2592,0.2601,0.2679,0.2507,0.2575,0.2662,0.2664,0.2665,0,0.2047,0.2094,0.2172,0.226,0.2285,0.234,0.2434,0.2492,0.2567,0.2595,0.264,0.2639,0.2683,0.2645,0.2701,0.2668,0.2674,0.2666,0.2669,0.2662,0.2619,0.2543,0.2591,0.2499,0.2682,0.268,0.2679,0,0.2021,0.2115,0.2172,0.2207,0.2314,0.2352,0.241,0.2498,0.2546,0.2624,0.2654,0.2712,0.2724,0.2757,0.2763,0.2733,0.2815,0.277,0.2795,0.2795,0.2651,0.2636,0.262,0.2826,0.2826,0.2826,0.2826,0,0.2032,0.2078,0.2156,0.2192,0.2251,0.2331,0.2401,0.2467,0.2553,0.2614,0.2667,0.272,0.2748,0.2795,0.2804,0.2851,0.2863,0.2833,0.283,0.267,0.2656,0.2569,0.2556,0.2829,0.2829,0.2828,0.2827,0,0.2007,0.2061,0.2125,0.2216,0.2244,0.2285,0.2393,0.2446,0.2525,0.2609,0.2633,0.273,0.2809,0.2848,0.2897,0.2897,0.2854,0.2945,0.2766,0.2742,0.2679,0.2678,0.2621,0.2556,0.2998,0.2998,0.2999,0,0.2007,0.2034,0.212,0.2149,0.2191,0.226,0.2315,0.2422,0.2488,0.2622,0.2661,0.2757,0.2836,0.2935,0.2948,0.3,0.289,0.286,0.2779,0.2687,0.2681,0.2583,0.2524,0.261,0.2608,0.2606,0.2604,0,0.1998,0.2019,0.2064,0.212,0.2174,0.2237,0.2323,0.2368,0.2499,0.2565,0.2669,0.2736,0.2854,0.2838,0.2908,0.2908,0.2711,0.2824,0.2749,0.242,0.2287,0.2216,0.2555,0.2586,0.2588,0.2589,0.259,0.2591,0.1976,0.1991,0.204,0.2084,0.2143,0.2197,0.2219,0.2316,0.2396,0.2465,0.2599,0.2621,0.2664,0.2753,0.2754,0.2609,0.2664,0.2481,0.2503,0.2424,0.2309,0.2642,0.2659,0.2661,0.2663,0.2665,0.2666,0,0.1947,0.1966,0.2006,0.2047,0.207,0.2131,0.221,0.2208,0.2256,0.2336,0.2399,0.2387,0.2367,0.2374,0.233,0.2264,0.2131,0.2186,0.196,0.1933,0.2228,0.2156,0.2036,0.2036,0.2036,0.2036,0.2036,0.2036,0.1934,0.1942,0.1955,0.1959,0.1985,0.199,0.2011,0.2021,0.2048,0.2023,0.1991,0.2042,0.2123,0.211,0.2,0.1947,0.1812,0.1726,0.1795,0.1946,0.1971,0.1996,0.1921,0.1754,0.1754,0.1326,0.1323,0.1321]},{"header":{"parameterUnit":"m.s-1","parameterCategory":2,"la1":30.2991,"la2":30.254,"lo1":-89.0895,"lo2":-89.0444,"dy":0.0017,"dx":0.0017,"nx":28,"ny":28,"refTime":"2024-03-08T09:00:00:Z","depth":"0","parameterNumber":3,"parameterNumberName":"V-component_of_CURRENTS"},"data":[0,0,0,0,0,0,0,0,0,0,0,0,0,0,0,0,0,0,0,0,0,0,0,0,0,0,0,0,0,0,0,0,0,0,0,0,0,0,0,0,0,0,0,0,0,0,0,0,0,0,0,0,0,0,0,0,0,0,-0.0352,-0.0352,0,-0.045,-0.0451,-0.0453,-0.0487,-0.0486,-0.0486,-0.0485,-0.0607,-0.0611,-0.0615,0,0,0,0,0,0,0,0,0,0,0,0,0,-0.0268,-0.0269,-0.0351,-0.0352,-0.0353,-0.045,-0.0451,-0.0453,-0.0487,-0.0486,-0.0486,-0.0485,-0.0606,-0.0611,-0.0615,0,0,0,0,0,0,0,0,0,0,0,0,0,-0.0332,-0.027,-0.0351,-0.0379,-0.0383,-0.0449,-0.0451,-0.0453,-0.0487,-0.0486,-0.0485,-0.0484,-0.0605,-0.061,-0.0616,-0.0672,0,0,-0.0634,-0.0636,0,0,0,0,0,0,0,0,-0.0328,-0.0336,-0.0374,-0.0378,-0.0381,-0.0452,-0.0467,-0.0527,-0.0488,-0.0451,-0.0485,-0.0484,-0.0556,-0.0566,-0.0591,-0.0678,-0.0683,-0.0634,-0.0638,-0.064,-0.0642,0,0,0,0,0,0,0,-0.0324,-0.0332,-0.0394,-0.0375,-0.038,-0.0413,-0.042,-0.0479,-0.0511,-0.0454,-0.0456,-0.0462,-0.0559,-0.0585,-0.0594,-0.0685,-0.0634,-0.0639,-0.0643,-0.0645,-0.0804,-0.0805,0,0,0,0,0,0,-0.0302,-0.0328,-0.0391,-0.0396,-0.0348,-0.0414,-0.0423,-0.0433,-0.051,-0.052,-0.0463,-0.0463,-0.0576,-0.0587,-0.0599,-0.0661,-0.064,-0.0646,-0.0649,-0.0804,-0.0805,-0.0805,0,0,0,0,0,0,-0.03,-0.0307,-0.0387,-0.0361,-0.0373,-0.0416,-0.0428,-0.0436,-0.0457,-0.0516,-0.0526,-0.0474,-0.0576,-0.0591,-0.0639,-0.0666,-0.0648,-0.0654,-0.0803,-0.0804,-0.0805,-0.0791,0,0,0,0,0,0,-0.0298,-0.0306,-0.031,-0.036,-0.0374,-0.0428,-0.0429,-0.0438,-0.0461,-0.0462,-0.053,-0.054,-0.0576,-0.063,-0.0645,-0.0674,-0.0658,-0.0802,-0.0803,-0.0805,-0.079,-0.0791,-0.0792,0,0,0,0,0,-0.0294,-0.0298,-0.031,-0.0317,-0.0376,-0.0429,-0.044,-0.0469,-0.0462,-0.0483,-0.0513,-0.0538,-0.0649,-0.0636,-0.0653,-0.0684,-0.0801,-0.0803,-0.0805,-0.079,-0.0791,-0.0792,0,0,0,0,0,0,-0.0263,-0.0303,-0.0317,-0.0332,-0.0379,-0.0433,-0.0448,-0.0467,-0.0509,-0.0505,-0.055,-0.0564,-0.061,-0.065,-0.0633,-0.0732,-0.073,-0.0735,-0.0713,-0.0714,-0.0715,-0.0697,-0.0663,0,0,0,0,0,-0.0257,-0.027,-0.0321,-0.0335,-0.0353,-0.0401,-0.0424,-0.0449,-0.0489,-0.0506,-0.0558,-0.0603,-0.0635,-0.0673,-0.0713,-0.0781,-0.0781,-0.081,-0.0811,-0.0812,-0.0808,-0.0828,-0.083,-0.0811,-0.0811,-0.0811,0,0,-0.0251,-0.0271,-0.0281,-0.0329,-0.0362,-0.0397,-0.0413,-0.0449,-0.0482,-0.0514,-0.0576,-0.0604,-0.0647,-0.0706,-0.0734,-0.0745,-0.0813,-0.0814,-0.0814,-0.081,-0.083,-0.0831,-0.0833,-0.0812,-0.0812,-0.0812,0,0,-0.0238,-0.026,-0.0268,-0.0304,-0.0351,-0.0391,-0.0397,-0.0465,-0.0497,-0.056,-0.0573,-0.0612,-0.07,-0.0731,-0.0753,-0.0788,-0.0802,-0.0809,-0.0823,-0.0842,-0.0844,-0.0845,-0.0825,-0.0825,-0.0828,-0.0828,-0.0828,0,-0.0226,-0.024,-0.0281,-0.0298,-0.0318,-0.0382,-0.04,-0.0455,-0.0535,-0.0557,-0.0577,-0.0669,-0.0709,-0.0752,-0.0764,-0.079,-0.0788,-0.0813,-0.0842,-0.0843,-0.0845,-0.0824,-0.0824,-0.0828,-0.0828,-0.0828,-0.0828,0,-0.0222,-0.0236,-0.0243,-0.0285,-0.032,-0.0348,-0.0419,-0.047,-0.0516,-0.0568,-0.0627,-0.0688,-0.0733,-0.0765,-0.078,-0.0816,-0.0803,-0.0822,-0.0834,-0.0845,-0.0823,-0.0823,-0.0827,-0.0827,-0.0827,-0.0828,0,0,-0.018,-0.023,-0.0228,-0.0238,-0.031,-0.0335,-0.0395,-0.0461,-0.0476,-0.0587,-0.0607,-0.0697,-0.0724,-0.0749,-0.0783,-0.0825,-0.0829,-0.0834,-0.0835,-0.0804,-0.0842,-0.0795,-0.079,-0.0855,-0.0856,-0.0856,-0.0813,0,-0.0161,-0.0176,-0.0209,-0.0231,-0.0248,-0.0313,-0.0354,-0.0422,-0.0487,-0.0535,-0.0619,-0.065,-0.0722,-0.0724,-0.0784,-0.0803,-0.0832,-0.0837,-0.0845,-0.0844,-0.0793,-0.079,-0.0714,-0.0667,-0.0813,-0.0813,-0.0813,0,-0.0139,-0.015,-0.016,-0.019,-0.0199,-0.0223,-0.0271,-0.0318,-0.0404,-0.0446,-0.0519,-0.0572,-0.0642,-0.069,-0.0774,-0.0772,-0.0803,-0.0836,-0.0836,-0.0797,-0.0798,-0.0685,-0.0661,-0.0749,-0.0813,-0.0813,-0.0813,0,-0.0082,-0.011,-0.0108,-0.0123,-0.0177,-0.0181,-0.0211,-0.0286,-0.0304,-0.0375,-0.0381,-0.0493,-0.0509,-0.0606,-0.0697,-0.0725,-0.0767,-0.0809,-0.0797,-0.0792,-0.0731,-0.072,-0.0785,-0.0854,-0.0854,-0.0855,-0.0855,0,-0.0049,-0.0045,-0.0075,-0.0075,-0.0061,-0.0115,-0.0111,-0.0156,-0.0196,-0.0189,-0.0317,-0.032,-0.0489,-0.0548,-0.0652,-0.0713,-0.0731,-0.0784,-0.0783,-0.0721,-0.0711,-0.0789,-0.0862,-0.0853,-0.0853,-0.0854,-0.0854,0,-0.0001,-0.0023,-0.0014,-0.0036,-0.0036,-0.0024,-0.0036,-0.0034,-0.0076,-0.006,-0.0069,-0.0171,-0.0236,-0.0394,-0.051,-0.0613,-0.0722,-0.071,-0.0607,-0.0596,-0.0677,-0.0751,-0.0788,-0.0822,-0.0687,-0.0685,-0.0684,0,0.0014,0.0023,0.0032,0.005,0.0046,0.0055,0.0064,0.0028,0.004,0.0039,0.0062,0.0011,-0.0008,-0.0173,-0.0352,-0.0497,-0.0632,-0.0535,-0.0592,-0.066,-0.0743,-0.079,-0.082,-0.0494,-0.0492,-0.0489,-0.0488,0,0.0049,0.0059,0.007,0.0115,0.0141,0.0166,0.0184,0.022,0.0206,0.0257,0.0316,0.0318,0.0167,0.0057,-0.0158,-0.0286,-0.0571,-0.0495,-0.0603,-0.0626,-0.0643,-0.0679,-0.0525,-0.0469,-0.0471,-0.0472,-0.0473,-0.0474,0.0083,0.0108,0.0134,0.0181,0.0223,0.0284,0.0336,0.0383,0.047,0.0585,0.0551,0.0622,0.0415,0.0139,-0.0053,-0.0355,-0.0414,-0.045,-0.0536,-0.0579,-0.0613,-0.0397,-0.0325,-0.0326,-0.0327,-0.0328,-0.0329,0,0.0121,0.0151,0.0195,0.0266,0.0341,0.0339,0.0426,0.0511,0.067,0.0783,0.0885,0.0862,0.0613,0.0283,-0.0127,-0.0351,-0.0464,-0.0501,-0.0571,-0.0606,-0.0432,-0.0427,-0.0327,-0.0327,-0.0327,-0.0326,-0.0326,-0.0326,0.0142,0.0195,0.0222,0.0357,0.0418,0.0538,0.0608,0.0758,0.087,0.1084,0.117,0.1187,0.094,0.0182,-0.0348,-0.0492,-0.0672,-0.0675,-0.0814,-0.0722,-0.0725,-0.0728,-0.0741,-0.0707,-0.0708,-0.0919,-0.0921,-0.0923]}],[{"header":{"parameterUnit":"m.s-1","parameterCategory":2,"la1":30.2991,"la2":30.254,"lo1":-89.0895,"lo2":-89.0444,"dy":0.0017,"dx":0.0017,"nx":28,"ny":28,"refTime":"2024-03-08T09:00:00:Z","depth":"2","parameterNumber":2,"parameterNumberName":"U-component_of_CURRENTS"},"data":[0,0,0,0,0,0,0,0,0,0,0,0,0,0,0,0,0,0,0,0,0,0,0,0,0,0,0,0,0,0,0,0,0,0,0,0,0,0,0,0,0,0,0,0,0,0,0,0,0,0,0,0,0,0,0,0,0,0,0.1654,0.1654,0,0.1665,0.1665,0.1666,0.1655,0.1654,0.1653,0.1653,0.1705,0.1707,0.1709,0,0,0,0,0,0,0,0,0,0,0,0,0,0.1625,0.1625,0.1654,0.1654,0.1654,0.1665,0.1665,0.1666,0.1655,0.1654,0.1653,0.1653,0.1705,0.1707,0.1709,0,0,0,0,0,0,0,0,0,0,0,0,0,0.1639,0.1626,0.1654,0.1648,0.1648,0.1665,0.1665,0.1666,0.1655,0.1654,0.1653,0.1652,0.1704,0.1707,0.171,0.1746,0,0,0.1719,0.172,0,0,0,0,0,0,0,0,0.1638,0.164,0.1649,0.1649,0.1648,0.1656,0.1674,0.1694,0.1655,0.1654,0.1653,0.1652,0.1692,0.1696,0.1702,0.1749,0.1751,0.1719,0.1721,0.1722,0.1723,0,0,0,0,0,0,0,0.1637,0.1639,0.166,0.1649,0.1649,0.1645,0.1647,0.1678,0.1681,0.1654,0.1653,0.1651,0.1692,0.1699,0.1703,0.1752,0.1719,0.1722,0.1723,0.1724,0.1823,0.1824,0,0,0,0,0,0,0.1633,0.1639,0.166,0.1661,0.1638,0.1647,0.1648,0.1656,0.1679,0.1681,0.1652,0.1651,0.1695,0.17,0.1705,0.1764,0.1722,0.1725,0.1726,0.1822,0.1823,0.1824,0,0,0,0,0,0,0.1632,0.1635,0.166,0.1647,0.165,0.1648,0.1657,0.1657,0.1673,0.1677,0.1679,0.1669,0.1694,0.1701,0.1719,0.1765,0.1726,0.1729,0.1821,0.1822,0.1824,0.1872,0,0,0,0,0,0,0.1632,0.1635,0.1643,0.1648,0.1651,0.1685,0.1658,0.1657,0.1672,0.167,0.1693,0.1696,0.1694,0.1714,0.1722,0.1768,0.1731,0.182,0.1822,0.1823,0.1869,0.1874,0.1879,0,0,0,0,0,0.1631,0.1638,0.1644,0.1646,0.1661,0.1686,0.1688,0.1684,0.1673,0.1693,0.1683,0.1695,0.173,0.1717,0.1726,0.1774,0.1819,0.1821,0.1823,0.1867,0.1873,0.1879,0,0,0,0,0,0,0.1627,0.1638,0.1644,0.1655,0.1678,0.1683,0.1689,0.1696,0.1706,0.17,0.1701,0.1704,0.1737,0.1745,0.173,0.1804,0.1781,0.1784,0.1811,0.1817,0.1822,0.1859,0.1734,0,0,0,0,0,0.1632,0.1641,0.1661,0.1672,0.1682,0.1693,0.1702,0.1709,0.1713,0.1717,0.1743,0.1752,0.1753,0.1773,0.1784,0.1832,0.1847,0.1869,0.1874,0.1878,0.1913,0.1934,0.1945,0.183,0.183,0.183,0,0,0.1632,0.1639,0.1644,0.1672,0.1682,0.1719,0.1697,0.1718,0.1754,0.1724,0.1784,0.1773,0.1764,0.1801,0.182,0.1816,0.1919,0.1881,0.1884,0.1917,0.1938,0.1949,0.1959,0.1831,0.1831,0.1831,0,0,0.1639,0.1647,0.1663,0.1687,0.1713,0.1735,0.1748,0.1784,0.1801,0.1851,0.1819,0.1834,0.1878,0.1873,0.187,0.1916,0.1935,0.1925,0.1999,0.2019,0.2029,0.2038,0.2075,0.2087,0.194,0.194,0.194,0,0.1647,0.1664,0.1674,0.1702,0.1726,0.1749,0.179,0.1817,0.1862,0.1882,0.1881,0.1926,0.1915,0.1937,0.1945,0.1933,0.195,0.1974,0.2027,0.2036,0.2045,0.2081,0.2094,0.1942,0.1942,0.1942,0.1942,0,0.1662,0.1691,0.17,0.1752,0.1791,0.1822,0.1869,0.1924,0.1959,0.1982,0.2032,0.2023,0.2055,0.2047,0.2011,0.2066,0.206,0.2019,0.2014,0.206,0.2094,0.2107,0.1946,0.1945,0.1944,0.1944,0,0,0.1653,0.1704,0.1711,0.1742,0.1818,0.1848,0.1931,0.2,0.2043,0.2105,0.2162,0.2168,0.2177,0.2174,0.2143,0.2163,0.2222,0.2129,0.2129,0.2173,0.2289,0.2212,0.2218,0.2187,0.2189,0.2191,0.229,0,0.167,0.1723,0.1755,0.1829,0.1869,0.1929,0.1999,0.2066,0.2126,0.2193,0.2201,0.2232,0.2218,0.2226,0.2254,0.2217,0.2257,0.2201,0.2235,0.2237,0.2167,0.223,0.204,0.2106,0.2303,0.2305,0.2306,0,0.1679,0.1717,0.1782,0.1867,0.1889,0.1945,0.2063,0.2126,0.2215,0.2253,0.2322,0.2331,0.2382,0.2343,0.2399,0.2364,0.2354,0.2332,0.2334,0.2262,0.2183,0.2091,0.2121,0.2327,0.2325,0.2324,0.2322,0,0.1658,0.1738,0.1787,0.1813,0.1917,0.1967,0.2036,0.2143,0.2187,0.2293,0.2342,0.2414,0.2436,0.247,0.2461,0.2437,0.2501,0.2452,0.2389,0.2384,0.2231,0.2208,0.2505,0.2505,0.2504,0.2504,0.2504,0,0.1659,0.1701,0.1774,0.1797,0.1866,0.1951,0.2033,0.2114,0.2208,0.2261,0.2364,0.2417,0.2465,0.2508,0.2508,0.2503,0.2555,0.2437,0.2411,0.2241,0.2219,0.241,0.2398,0.2508,0.2507,0.2506,0.2506,0,0.1636,0.1678,0.1733,0.1825,0.1852,0.1906,0.2011,0.2069,0.2175,0.2259,0.2293,0.2412,0.2486,0.2536,0.2562,0.2536,0.254,0.2515,0.2325,0.2275,0.2408,0.2397,0.2491,0.2489,0.2487,0.2486,0.2485,0,0.1631,0.1649,0.1729,0.1752,0.1791,0.187,0.1925,0.2036,0.2094,0.2249,0.2278,0.2384,0.243,0.2483,0.2464,0.2485,0.252,0.2298,0.2211,0.2444,0.241,0.2402,0.2393,0.2037,0.2033,0.2029,0.2026,0,0.1616,0.1634,0.1672,0.1717,0.1765,0.182,0.1903,0.193,0.2066,0.2126,0.2203,0.2246,0.2328,0.2245,0.2271,0.2256,0.2287,0.222,0.2519,0.2058,0.2021,0.1986,0.1992,0.1992,0.1996,0.1998,0.2,0.2001,0.1595,0.1608,0.1641,0.1681,0.1725,0.1762,0.1767,0.1843,0.1887,0.1937,0.2034,0.2025,0.2055,0.199,0.1954,0.1954,0.211,0.201,0.202,0.2035,0.1952,0.1912,0.1851,0.1853,0.1855,0.1857,0.1859,0,0.1557,0.1578,0.1605,0.1636,0.1636,0.1698,0.1738,0.1699,0.1697,0.1759,0.1765,0.1613,0.157,0.1637,0.158,0.1593,0.1571,0.1536,0.1483,0.1518,0.155,0.1439,0.1204,0.1202,0.12,0.1198,0,0,0.1538,0.1534,0.1543,0.1528,0.1551,0.1526,0.1521,0.1464,0.1459,0.1391,0.1365,0.1436,0.1542,0.1312,0.1316,0.1246,0.1364,0.1203,0.1732,0.1702,0.173,0.1834,0.1707,0,0,0,0,0]},{"header":{"parameterUnit":"m.s-1","parameterCategory":2,"la1":30.2991,"la2":30.254,"lo1":-89.0895,"lo2":-89.0444,"dy":0.0017,"dx":0.0017,"nx":28,"ny":28,"refTime":"2024-03-08T09:00:00:Z","depth":"2","parameterNumber":3,"parameterNumberName":"V-component_of_CURRENTS"},"data":[0,0,0,0,0,0,0,0,0,0,0,0,0,0,0,0,0,0,0,0,0,0,0,0,0,0,0,0,0,0,0,0,0,0,0,0,0,0,0,0,0,0,0,0,0,0,0,0,0,0,0,0,0,0,0,0,0,0,-0.0023,-0.0023,0,-0.0056,-0.0056,-0.0057,-0.0063,-0.0063,-0.0062,-0.0062,-0.0226,-0.0231,-0.0236,0,0,0,0,0,0,0,0,0,0,0,0,0,0.0011,0.001,-0.0023,-0.0023,-0.0023,-0.0056,-0.0056,-0.0057,-0.0063,-0.0063,-0.0062,-0.0062,-0.0225,-0.0231,-0.0236,0,0,0,0,0,0,0,0,0,0,0,0,0,-0.0014,0.001,-0.0023,-0.0028,-0.0029,-0.0056,-0.0057,-0.0057,-0.0064,-0.0063,-0.0062,-0.0061,-0.0223,-0.023,-0.0237,-0.0298,0,0,-0.026,-0.0263,0,0,0,0,0,0,0,0,-0.0012,-0.0015,-0.0027,-0.0028,-0.0028,-0.0052,-0.0105,-0.0143,-0.0064,-0.0053,-0.0062,-0.0061,-0.0179,-0.019,-0.02,-0.0306,-0.0313,-0.026,-0.0265,-0.0268,-0.027,0,0,0,0,0,0,0,-0.001,-0.0014,-0.0039,-0.0027,-0.0028,-0.0037,-0.004,-0.0112,-0.0125,-0.0054,-0.0054,-0.0054,-0.0181,-0.0193,-0.0204,-0.0315,-0.026,-0.0266,-0.0271,-0.0274,-0.0455,-0.0456,0,0,0,0,0,0,-0.0001,-0.0012,-0.0038,-0.0039,-0.0015,-0.0038,-0.0041,-0.0048,-0.0121,-0.013,-0.0054,-0.0054,-0.0181,-0.0196,-0.021,-0.0267,-0.0268,-0.0275,-0.0279,-0.0455,-0.0455,-0.0456,0,0,0,0,0,0,0.0,-0.0003,-0.0036,-0.0024,-0.0028,-0.0039,-0.0046,-0.0049,-0.0057,-0.0119,-0.0131,-0.0059,-0.0181,-0.02,-0.0246,-0.0274,-0.0278,-0.0284,-0.0454,-0.0455,-0.0456,-0.0393,0,0,0,0,0,0,0.0001,-0.0003,-0.0006,-0.0023,-0.0028,-0.0058,-0.0047,-0.005,-0.0057,-0.0057,-0.0129,-0.0142,-0.0182,-0.0234,-0.0253,-0.0284,-0.029,-0.0454,-0.0455,-0.0455,-0.0395,-0.0392,-0.0389,0,0,0,0,0,0.0002,0.0003,-0.0006,-0.0009,-0.0033,-0.0058,-0.0063,-0.0069,-0.0058,-0.0072,-0.0091,-0.014,-0.0254,-0.024,-0.0262,-0.0296,-0.0453,-0.0454,-0.0455,-0.0396,-0.0392,-0.0389,0,0,0,0,0,0,0.0019,0.0002,-0.0008,-0.0012,-0.0039,-0.0058,-0.006,-0.0069,-0.0095,-0.0085,-0.014,-0.0157,-0.0206,-0.026,-0.0243,-0.035,-0.0366,-0.0371,-0.0313,-0.0311,-0.0308,-0.0327,-0.0296,0,0,0,0,0,0.0019,0.0016,-0.0012,-0.0017,-0.0026,-0.0046,-0.0055,-0.006,-0.0082,-0.0091,-0.0165,-0.0212,-0.0231,-0.0272,-0.032,-0.0388,-0.0407,-0.0426,-0.0423,-0.042,-0.045,-0.0466,-0.0466,-0.0459,-0.0459,-0.0459,0,0,0.0024,0.0017,0.0014,-0.0013,-0.0027,-0.0046,-0.005,-0.0058,-0.0069,-0.011,-0.0176,-0.0209,-0.0241,-0.0293,-0.0325,-0.0343,-0.0424,-0.0422,-0.0419,-0.0451,-0.0467,-0.0467,-0.0468,-0.046,-0.046,-0.046,0,0,0.0042,0.0025,0.0028,0.001,-0.0007,-0.0034,-0.0037,-0.0088,-0.0102,-0.0154,-0.0164,-0.0209,-0.0302,-0.0324,-0.0333,-0.0354,-0.0395,-0.0381,-0.0404,-0.0416,-0.0417,-0.0418,-0.0401,-0.0401,-0.0395,-0.0395,-0.0395,0,0.0047,0.0051,0.0022,0.0022,0.0016,-0.0029,-0.003,-0.0058,-0.0128,-0.0147,-0.0171,-0.0277,-0.031,-0.0331,-0.0332,-0.0351,-0.0355,-0.0404,-0.0411,-0.0412,-0.0415,-0.0397,-0.0398,-0.0392,-0.0393,-0.0393,-0.0393,0,0.0071,0.0069,0.0072,0.0049,0.0026,0.0023,-0.002,-0.0072,-0.0112,-0.0151,-0.0214,-0.0269,-0.0334,-0.035,-0.0344,-0.0384,-0.0376,-0.0385,-0.0412,-0.0411,-0.0393,-0.0395,-0.0388,-0.0389,-0.039,-0.0391,0,0,0.0097,0.0089,0.0091,0.0098,0.0051,0.0042,0.0002,-0.0044,-0.0053,-0.0167,-0.0185,-0.0261,-0.0323,-0.034,-0.0368,-0.0401,-0.0392,-0.0409,-0.0411,-0.0381,-0.0399,-0.0349,-0.0346,-0.0398,-0.0399,-0.04,-0.0364,0,0.0124,0.0139,0.0123,0.0126,0.0126,0.0078,0.0052,0.0005,-0.0057,-0.0107,-0.0173,-0.0209,-0.0302,-0.0315,-0.0373,-0.0387,-0.0403,-0.04,-0.0419,-0.042,-0.0366,-0.035,-0.0326,-0.029,-0.0366,-0.0367,-0.0367,0,0.0157,0.0164,0.0178,0.0183,0.0182,0.0167,0.0124,0.0096,0.0024,-0.001,-0.0108,-0.0163,-0.0249,-0.029,-0.0399,-0.0394,-0.0401,-0.0419,-0.0417,-0.0408,-0.0375,-0.0316,-0.0291,-0.0371,-0.037,-0.037,-0.037,0,0.0199,0.021,0.0228,0.0228,0.0208,0.0209,0.0184,0.0112,0.0117,0.0042,0.0024,-0.0105,-0.0127,-0.0234,-0.0324,-0.0352,-0.039,-0.042,-0.0381,-0.0376,-0.0383,-0.0377,-0.0454,-0.0454,-0.0454,-0.0454,-0.0454,0,0.0239,0.0258,0.0256,0.027,0.0299,0.0263,0.0274,0.0231,0.0208,0.0228,0.0066,0.0069,-0.0113,-0.0172,-0.0278,-0.0344,-0.0363,-0.039,-0.0373,-0.0355,-0.0347,-0.0456,-0.0457,-0.0453,-0.0453,-0.0453,-0.0454,0,0.0276,0.0275,0.0307,0.0313,0.0321,0.0336,0.0357,0.0369,0.0311,0.0336,0.0325,0.0229,0.0135,-0.0035,-0.013,-0.024,-0.032,-0.0309,-0.0263,-0.0243,-0.0308,-0.0306,-0.0301,-0.0299,-0.0298,-0.0296,-0.0295,0,0.0295,0.0315,0.0348,0.038,0.0388,0.0411,0.0437,0.0423,0.0451,0.0441,0.0482,0.0415,0.0387,0.0216,0.0028,-0.014,-0.0193,-0.0195,-0.0263,-0.0313,-0.0297,-0.0297,-0.0297,-0.0229,-0.0228,-0.0227,-0.0226,0,0.0333,0.0346,0.0375,0.0435,0.0481,0.0535,0.0576,0.0641,0.0641,0.0668,0.0736,0.0727,0.0557,0.0397,0.0168,0.0048,-0.0198,-0.0171,-0.0233,-0.0268,-0.0242,-0.0227,-0.023,-0.0214,-0.0215,-0.0216,-0.0217,-0.0217,0.0365,0.0396,0.0438,0.05,0.0561,0.0654,0.0725,0.0795,0.0893,0.095,0.0959,0.092,0.0722,0.0419,0.0213,-0.004,-0.0044,-0.0152,-0.0158,-0.0165,-0.016,-0.0132,-0.0081,-0.0081,-0.0081,-0.0082,-0.0082,0,0.0405,0.0439,0.0501,0.0584,0.0672,0.0685,0.0819,0.0904,0.1047,0.1076,0.113,0.0951,0.0765,0.0494,0.0147,-0.0037,-0.0095,-0.011,-0.0156,-0.0163,-0.0171,-0.017,-0.0091,-0.0092,-0.0093,-0.0094,0,0,0.0429,0.0492,0.0523,0.0664,0.073,0.0863,0.0956,0.108,0.1138,0.1205,0.1165,0.1115,0.0813,0.056,0.03,0.0095,0.0003,0.0055,0.0088,0.006,0.0054,-0.0161,-0.0162,0,0,0,0,0]}],[{"header":{"parameterUnit":"m.s-1","parameterCategory":2,"la1":30.2991,"la2":30.254,"lo1":-89.0895,"lo2":-89.0444,"dy":0.0017,"dx":0.0017,"nx":28,"ny":28,"refTime":"2024-03-08T09:00:00:Z","depth":"4","parameterNumber":2,"parameterNumberName":"U-component_of_CURRENTS"},"data":[0,0,0,0,0,0,0,0,0,0,0,0,0,0,0,0,0,0,0,0,0,0,0,0,0,0,0,0,0,0,0,0,0,0,0,0,0,0,0,0,0,0,0,0,0,0,0,0,0,0,0,0,0,0,0,0,0,0,0.0558,0.0558,0,0.0569,0.0569,0.0569,0.0631,0.0632,0.0634,0.0635,0.0611,0.061,0.0608,0,0,0,0,0,0,0,0,0,0,0,0,0,0.0611,0.061,0.0558,0.0558,0.0558,0.0569,0.0569,0.057,0.0631,0.0632,0.0634,0.0635,0.0612,0.061,0.0608,0,0,0,0,0,0,0,0,0,0,0,0,0,0.0603,0.061,0.0558,0.0589,0.0592,0.0569,0.0569,0.057,0.063,0.0632,0.0634,0.0636,0.0613,0.061,0.0607,0.055,0,0,0.0599,0.0598,0,0,0,0,0,0,0,0,0.0604,0.0601,0.0584,0.0587,0.059,0.0599,0.0579,0.0561,0.063,0.0617,0.0635,0.0637,0.0602,0.06,0.06,0.0549,0.0548,0.0599,0.0597,0.0596,0.0595,0,0,0,0,0,0,0,0.0604,0.0601,0.0564,0.0584,0.0587,0.0609,0.061,0.0577,0.0599,0.0619,0.0623,0.0621,0.0604,0.0603,0.06,0.0547,0.0599,0.0596,0.0594,0.0593,0.0545,0.0546,0,0,0,0,0,0,0.0596,0.0601,0.0564,0.0564,0.06,0.0606,0.0608,0.0595,0.06,0.0602,0.0619,0.0623,0.0607,0.0603,0.0599,0.0635,0.0596,0.0593,0.0591,0.0545,0.0545,0.0546,0,0,0,0,0,0,0.0597,0.0592,0.0563,0.0583,0.0581,0.0603,0.0589,0.0595,0.0611,0.06,0.0603,0.0632,0.0608,0.0603,0.0575,0.0631,0.0592,0.0589,0.0544,0.0545,0.0546,0.064,0,0,0,0,0,0,0.0598,0.0592,0.0597,0.0582,0.0579,0.0546,0.0587,0.0593,0.0605,0.0612,0.0611,0.0611,0.0609,0.058,0.0573,0.0626,0.0587,0.0544,0.0545,0.0545,0.0636,0.0644,0.065,0,0,0,0,0,0.06,0.06,0.0596,0.0593,0.0579,0.0544,0.0545,0.0569,0.0604,0.0596,0.0602,0.0612,0.0582,0.0576,0.0568,0.0623,0.0544,0.0545,0.0545,0.0633,0.0642,0.065,0,0,0,0,0,0,0.0634,0.0605,0.0602,0.0595,0.0566,0.0554,0.0572,0.057,0.0571,0.0599,0.0589,0.0587,0.0613,0.0572,0.0567,0.0609,0.0574,0.0574,0.0644,0.0652,0.0659,0.0667,0.0585,0,0,0,0,0,0.0636,0.0632,0.059,0.059,0.0582,0.0575,0.0574,0.0579,0.057,0.0577,0.0565,0.0573,0.0604,0.0589,0.06,0.0575,0.0586,0.0611,0.0618,0.0624,0.0623,0.0671,0.0683,0.0549,0.0549,0.0549,0,0,0.0646,0.0637,0.0633,0.0597,0.0597,0.0563,0.0581,0.0583,0.0578,0.0569,0.0571,0.0602,0.0608,0.0629,0.0634,0.0598,0.0673,0.0625,0.0631,0.0626,0.0674,0.0687,0.0699,0.055,0.0549,0.0549,0,0,0.0662,0.066,0.0654,0.0634,0.062,0.0588,0.0583,0.0559,0.0584,0.0565,0.0607,0.0625,0.0625,0.0642,0.0657,0.0679,0.0731,0.0724,0.0739,0.0787,0.0799,0.081,0.0873,0.0888,0.07,0.07,0.07,0,0.0678,0.0667,0.0646,0.0638,0.063,0.0592,0.0574,0.0572,0.0542,0.0579,0.0576,0.0662,0.0628,0.0708,0.0721,0.0697,0.0761,0.0716,0.08,0.081,0.082,0.0881,0.0897,0.0705,0.0704,0.0704,0.0703,0,0.0679,0.0677,0.0681,0.0642,0.0614,0.0606,0.0573,0.0566,0.0582,0.06,0.07,0.0689,0.0733,0.0751,0.0734,0.0819,0.086,0.0832,0.0788,0.084,0.09,0.0916,0.0711,0.071,0.0708,0.0707,0,0,0.0693,0.068,0.0685,0.0683,0.0631,0.0605,0.0596,0.0591,0.0628,0.0657,0.0737,0.078,0.0823,0.0838,0.0859,0.0879,0.097,0.0888,0.0889,0.0968,0.1139,0.1018,0.1023,0.1004,0.1006,0.1008,0.1167,0,0.0702,0.0686,0.0679,0.0655,0.0632,0.0618,0.0597,0.0603,0.0638,0.069,0.0779,0.0859,0.085,0.0903,0.0929,0.096,0.1013,0.0932,0.106,0.1063,0.0963,0.1035,0.1015,0.1178,0.1182,0.1184,0.1186,0,0.0699,0.0689,0.0675,0.0665,0.066,0.0643,0.0646,0.0638,0.0708,0.0761,0.088,0.0951,0.1018,0.0993,0.1104,0.1083,0.1119,0.1143,0.115,0.1007,0.0968,0.1105,0.1213,0.1211,0.1209,0.1207,0.1205,0,0.0692,0.0692,0.0687,0.0685,0.0646,0.0679,0.0662,0.0687,0.0724,0.0839,0.0893,0.1023,0.1085,0.1164,0.1188,0.1178,0.1317,0.1283,0.1238,0.1232,0.1254,0.124,0.1387,0.1387,0.1387,0.1386,0.1386,0,0.0687,0.0692,0.0705,0.0704,0.0708,0.0698,0.0744,0.0745,0.0816,0.0874,0.0953,0.1032,0.1137,0.1224,0.125,0.1284,0.1365,0.1261,0.1262,0.1291,0.128,0.1267,0.1251,0.1392,0.1391,0.139,0.1389,0,0.0669,0.0677,0.0681,0.0695,0.0704,0.0717,0.0773,0.0792,0.0857,0.0939,0.0987,0.108,0.1158,0.1253,0.1359,0.1334,0.1381,0.1387,0.1443,0.1442,0.1263,0.125,0.1351,0.1348,0.1345,0.1343,0.1342,0,0.065,0.065,0.0677,0.0684,0.0711,0.0749,0.074,0.08,0.0837,0.0956,0.098,0.1108,0.1163,0.1231,0.1305,0.1384,0.1369,0.141,0.1304,0.1268,0.126,0.125,0.1241,0.1338,0.1337,0.1336,0.1336,0,0.0617,0.0647,0.0649,0.0652,0.0676,0.0685,0.072,0.0753,0.0822,0.0912,0.097,0.1036,0.1117,0.1177,0.1253,0.13,0.1374,0.1382,0.1387,0.1288,0.1253,0.1245,0.1238,0.1327,0.1328,0.1329,0.1329,0,0.0606,0.0599,0.0606,0.0613,0.063,0.061,0.0639,0.0677,0.072,0.0862,0.0893,0.0997,0.111,0.1138,0.1201,0.123,0.1206,0.1178,0.1193,0.1204,0.1073,0.1002,0.1016,0,0,0,0,0,0.0583,0.0562,0.0553,0.0548,0.0566,0.0568,0.0597,0.0631,0.0742,0.0751,0.0827,0.0895,0.0974,0.1028,0.1028,0.1125,0.1204,0.1121,0.1176,0.1278,0.1288,0.1143,0,0,0,0,0,0,0.0568,0.0555,0.0531,0.05,0.0493,0.0481,0.0496,0.055,0.0568,0.0698,0.0736,0.085,0.0924,0.0975,0.1018,0.1038,0.1055,0.1201,0.1199,0.1272,0.1281,0.1289,0.1144,0,0,0,0,0]},{"header":{"parameterUnit":"m.s-1","parameterCategory":2,"la1":30.2991,"la2":30.254,"lo1":-89.0895,"lo2":-89.0444,"dy":0.0017,"dx":0.0017,"nx":28,"ny":28,"refTime":"2024-03-08T09:00:00:Z","depth":"4","parameterNumber":3,"parameterNumberName":"V-component_of_CURRENTS"},"data":[0,0,0,0,0,0,0,0,0,0,0,0,0,0,0,0,0,0,0,0,0,0,0,0,0,0,0,0,0,0,0,0,0,0,0,0,0,0,0,0,0,0,0,0,0,0,0,0,0,0,0,0,0,0,0,0,0,0,0.04,0.0401,0,0.0436,0.0436,0.0436,0.0443,0.0443,0.0443,0.0442,0.0479,0.0481,0.0482,0,0,0,0,0,0,0,0,0,0,0,0,0,0.0331,0.0332,0.04,0.0401,0.0401,0.0435,0.0436,0.0437,0.0444,0.0443,0.0443,0.0442,0.0479,0.048,0.0482,0,0,0,0,0,0,0,0,0,0,0,0,0,0.0364,0.0333,0.04,0.0408,0.0409,0.0435,0.0436,0.0437,0.0444,0.0443,0.0443,0.0442,0.0478,0.048,0.0482,0.0505,0,0,0.0488,0.0489,0,0,0,0,0,0,0,0,0.0362,0.0367,0.0407,0.0408,0.0409,0.0434,0.0425,0.0459,0.0444,0.0431,0.0442,0.0442,0.0464,0.0467,0.0476,0.0506,0.0508,0.0488,0.049,0.049,0.0491,0,0,0,0,0,0,0,0.036,0.0365,0.0415,0.0407,0.0408,0.0407,0.0411,0.0432,0.0451,0.0432,0.0433,0.0436,0.0465,0.0474,0.0477,0.0508,0.0488,0.049,0.0491,0.0492,0.0549,0.0549,0,0,0,0,0,0,0.0355,0.0363,0.0414,0.0416,0.0383,0.0409,0.0414,0.0427,0.0451,0.0453,0.0436,0.0436,0.0471,0.0475,0.0478,0.0519,0.049,0.0492,0.0493,0.0549,0.0549,0.0549,0,0,0,0,0,0,0.0354,0.036,0.0412,0.0389,0.0395,0.041,0.0425,0.0428,0.0451,0.0453,0.0456,0.0458,0.0471,0.0476,0.0514,0.052,0.0493,0.0495,0.0548,0.0549,0.0549,0.0593,0,0,0,0,0,0,0.0352,0.0359,0.0373,0.0389,0.0397,0.0437,0.0426,0.0429,0.0453,0.0453,0.0473,0.0475,0.0471,0.0511,0.0516,0.0522,0.0496,0.0548,0.0548,0.0549,0.0591,0.0595,0.0598,0,0,0,0,0,0.0349,0.0363,0.0373,0.0379,0.0413,0.0438,0.0442,0.045,0.0454,0.0469,0.0487,0.0475,0.0517,0.0514,0.0519,0.0526,0.0547,0.0548,0.0549,0.059,0.0594,0.0598,0,0,0,0,0,0,0.0343,0.0366,0.0377,0.0399,0.0422,0.0439,0.045,0.0464,0.0491,0.0494,0.0498,0.0502,0.0528,0.0527,0.0523,0.0541,0.0523,0.0525,0.0552,0.0557,0.056,0.0598,0.0498,0,0,0,0,0,0.0348,0.0363,0.0389,0.0409,0.0421,0.0443,0.0456,0.0467,0.0489,0.0501,0.0524,0.0533,0.0534,0.0547,0.0552,0.0582,0.055,0.0583,0.0586,0.0589,0.0622,0.0564,0.0565,0.0552,0.0552,0.0552,0,0,0.0348,0.0365,0.0373,0.0408,0.0425,0.0456,0.045,0.0476,0.0509,0.0501,0.0561,0.0553,0.0544,0.0565,0.0576,0.0569,0.0571,0.059,0.0593,0.0625,0.0565,0.0566,0.0567,0.0552,0.0552,0.0552,0,0,0.0356,0.0376,0.0394,0.0419,0.0452,0.0469,0.0483,0.0521,0.0544,0.0598,0.0581,0.0591,0.0623,0.0609,0.0604,0.0635,0.0588,0.0624,0.0684,0.0625,0.0626,0.0626,0.0566,0.056,0.063,0.0631,0.0631,0,0.0363,0.039,0.0403,0.0434,0.0462,0.048,0.0518,0.0544,0.0596,0.0624,0.0623,0.0661,0.0643,0.0656,0.0659,0.0644,0.0604,0.0668,0.063,0.063,0.0629,0.0567,0.0561,0.0633,0.0632,0.0632,0.0632,0,0.0383,0.0416,0.0429,0.0478,0.0511,0.0542,0.0583,0.0622,0.0657,0.0689,0.0734,0.0724,0.0737,0.0723,0.0707,0.0697,0.0665,0.0634,0.062,0.0633,0.0566,0.0559,0.0636,0.0635,0.0634,0.0634,0,0,0.038,0.0434,0.0443,0.0479,0.0539,0.057,0.0626,0.0686,0.0729,0.0779,0.0824,0.0831,0.0827,0.082,0.0787,0.0761,0.0699,0.071,0.0705,0.0653,0.0568,0.054,0.0528,0.0657,0.0656,0.0656,0.0514,0,0.0401,0.0461,0.0485,0.0556,0.0597,0.0637,0.0686,0.0743,0.0795,0.0841,0.0845,0.0865,0.0859,0.0846,0.0824,0.0726,0.0686,0.0741,0.0563,0.0558,0.0533,0.0521,0.0654,0.0508,0.0506,0.0505,0.0504,0,0.0422,0.0461,0.0529,0.0605,0.0626,0.0671,0.076,0.0808,0.0868,0.0904,0.0943,0.0929,0.0907,0.0878,0.077,0.0804,0.07,0.0636,0.0627,0.0592,0.0517,0.0496,0.049,0.0491,0.0492,0.0493,0.0494,0,0.0425,0.0499,0.0554,0.0583,0.0663,0.0706,0.0755,0.0836,0.0884,0.0935,0.0953,0.0951,0.0909,0.0828,0.0705,0.0716,0.057,0.0543,0.0432,0.0427,0.0475,0.0477,0.0457,0.0457,0.0457,0.0458,0.0458,0,0.0447,0.0494,0.0559,0.0595,0.0665,0.0721,0.081,0.0857,0.0918,0.0968,0.0975,0.0981,0.0891,0.08,0.0702,0.0551,0.0549,0.0453,0.0394,0.0493,0.0498,0.0468,0.0471,0.0452,0.0453,0.0455,0.0455,0,0.0452,0.049,0.0557,0.0639,0.0672,0.0727,0.0838,0.0899,0.0943,0.0994,0.0993,0.0967,0.0855,0.0761,0.0592,0.0518,0.0387,0.0325,0.0442,0.0389,0.0282,0.029,0.0187,0.0185,0.0183,0.0182,0.0181,0,0.0461,0.0493,0.0586,0.063,0.0674,0.0765,0.0833,0.0914,0.0969,0.0989,0.0991,0.0899,0.0867,0.0622,0.0525,0.0335,0.031,0.0229,0.0281,0.0305,0.0257,0.0267,0.0276,0.0178,0.0178,0.0177,0.0177,0,0.0476,0.0505,0.0559,0.0642,0.072,0.081,0.0899,0.0929,0.0999,0.1023,0.0968,0.0867,0.0737,0.0596,0.0442,0.0316,0.0286,0.021,0.0214,0.0261,0.0292,0.0249,0.026,0.0171,0.0172,0.0172,0.0172,0,0.0485,0.0517,0.0581,0.0657,0.0747,0.0826,0.0882,0.0925,0.0968,0.0972,0.0944,0.0838,0.0776,0.0581,0.0451,0.0321,0.0291,0.0246,0.0246,0.0252,0.0329,0.0382,0.0243,0,0,0,0,0,0.049,0.0526,0.0594,0.0676,0.0762,0.0817,0.0911,0.0957,0.1001,0.0955,0.095,0.0835,0.0643,0.0571,0.0431,0.0423,0.0275,0.0254,0.0224,0.0137,0.0144,0.0225,0,0,0,0,0,0,0.0493,0.055,0.0586,0.0677,0.0732,0.0833,0.0897,0.093,0.0903,0.0914,0.0815,0.0777,0.0596,0.071,0.0417,0.0383,0.0339,0.0175,0.0171,0.0133,0.014,0.0145,0.023,0,0,0,0,0]}]]